Location: Ladd Observatory
(41.8387°N, 71.3996°W)
Time: 04:20:51
(UTC-05:00)

Envisat - Visible Passes

Search period start: 01 December 2020 00:00
Search period end: 11 December 2020 00:00
Orbit: 764 x 766 km, 98.1° (Epoch: 30 November)

Date Brightness Start Highest point End Pass type
(mag) Time Alt. Az. Time Alt. Az. Time Alt. Az.
01 Dec 3.8 05:21:59 10° NNE 05:26:59 54° E 05:31:56 10° S visible
01 Dec 6.2 18:18:53 10° WSW 18:21:13 13° W 18:23:35 10° WNW visible
02 Dec 5.3 04:45:51 10° NE 04:49:58 24° E 04:54:04 10° SSE visible
02 Dec 5.1 17:39:40 10° SSW 17:44:03 29° W 17:48:29 10° NW visible
03 Dec 6.3 04:11:44 10° ENE 04:12:45 11° E 04:13:46 10° E visible
03 Dec 3.0 05:47:18 10° NNE 05:52:25 87° WNW 05:57:30 10° SSW visible
03 Dec 3.5 17:02:04 10° S 17:07:06 65° W 17:12:10 10° NNW visible
04 Dec 4.3 05:10:43 10° NNE 05:15:33 42° E 05:20:21 10° S visible
04 Dec 6.0 18:06:28 10° SW 18:09:42 17° W 18:12:57 10° NW visible
05 Dec 5.7 04:34:51 10° NE 04:38:29 19° E 04:42:05 10° SE visible
05 Dec 3.2 06:12:51 10° N 06:17:46 50° WNW 06:22:39 10° SW visible
05 Dec 4.7 17:27:55 10° SSW 17:32:36 37° W 17:37:18 10° NNW visible
06 Dec 3.2 05:35:56 10° NNE 05:41:02 75° ESE 05:46:06 10° S visible
06 Dec 3.1 16:50:37 10° SSE 16:55:42 83° WSW 17:00:49 10° NNW visible
07 Dec 4.7 04:59:30 10° NNE 05:04:06 33° E 05:08:40 10° SSE visible
07 Dec 5.6 17:54:22 10° SW 17:58:12 21° W 18:02:04 10° NW visible
08 Dec 6.0 04:24:03 10° NE 04:26:58 15° E 04:29:52 10° SE visible
08 Dec 3.0 06:01:23 10° N 06:06:25 63° WNW 06:11:25 10° SSW visible
08 Dec 4.2 17:16:18 10° S 17:21:10 47° W 17:26:04 10° NNW visible
09 Dec 3.6 05:24:35 10° NNE 05:29:38 59° E 05:34:37 10° S visible
09 Dec 3.0 16:39:14 10° SSE 16:44:19 79° ENE 16:49:24 10° N visible
09 Dec 6.2 18:22:02 10° WSW 18:23:54 12° W 18:25:48 10° WNW visible
10 Dec 5.2 04:48:22 10° NE 04:52:38 26° E 04:56:52 10° SSE visible
10 Dec 3.5 06:27:04 10° N 06:31:42 37° WNW 06:36:19 10° SW visible
10 Dec 5.2 17:42:27 10° SSW 17:46:43 27° W 17:51:01 10° NW visible
